Weather History for Luxor, Egypt

Change the Weather History Date:

Sunday, May 19, 2013

  Actual Average Record
Temperature  
Mean Temperature 91 °F -  
Max Temperature 108 °F 101 °F 109 °F (1997)
Min Temperature 74 °F 73 °F 66 °F (2001)
Cooling Degree Days 26    
Growing Degree Days 41 (Base 50)    
Moisture  
Dew Point 52 °F    
Average Humidity 23    
Maximum Humidity 36    
Minimum Humidity 10    
Precipitation  
Precipitation 0.00 in 0.00 in - ()
Sea Level Pressure  
Sea Level Pressure 29.75 in    
Wind  
Wind Speed 2 mph ()    
Max Wind Speed 7 mph    
Max Gust Speed -    
Visibility 5.3 miles    
Events      
Averages and records for this station are not official NWS values.
T = Trace of Precipitation, MM = Missing Value Source: Averaged Metar Reports

Daily Weather History Graph

Daily Weather History Graph

Search for Another Location

Airport:

Trip Planner

Search our weather history database for the weather conditions in past years. The results will help you decide how hot, cold, wet, or windy it might be!

Date:

Astronomy

May. 19, 2013 Rise Set
Actual Time 5:01 AM EET 6:29 PM EET
Civil Twilight 4:36 AM EET 6:54 PM EET
Nautical Twilight 4:06 AM EET 7:24 PM EET
Astronomical Twilight 3:35 AM EET 7:56 PM EET
Moon 12:47 PM EET (5/19) 12:37 AM EET (5/19)
Length of Visible Light 14h 18m
Length of Day
13h 27m
Waxing Gibbous, 62% of the Moon is Illuminated
May 19
Waxing Gibbous
May 25
Full
May 31
Last Quarter
Jun 8
New
Jun 16
First Quarter

Hourly Weather History & Observations

Time (EET) Temp. Heat Index Dew Point Humidity Pressure Visibility Wind Dir Wind Speed Gust Speed Precip Events Conditions
12:00 AM 87.8 °F - 50.0 °F 27% 29.77 in - ENE 2.3 mph - N/A   Clear
1:00 AM 84.2 °F - 46.4 °F 27% 29.77 in - Calm Calm - N/A   Clear
2:00 AM 84 °F - 50 °F 20% 29.76 in 6 mi NE 2.3 mph - -  
2:00 AM 84.2 °F - 50.0 °F 30% 29.77 in - NE 2.3 mph - N/A   Clear
3:00 AM 82.4 °F - 46.4 °F 28% 29.77 in - ESE 2.3 mph - N/A   Clear
4:00 AM 77.0 °F - 46.4 °F 34% 29.77 in - Calm Calm - N/A   Clear
5:00 AM 75.2 °F - 46.4 °F 36% 29.77 in - Calm Calm - N/A   Clear
6:00 AM 77.0 °F - 44.6 °F 32% 29.80 in - Calm Calm - N/A   Clear
7:00 AM 86.0 °F - 51.8 °F 31% 29.80 in - Calm Calm - N/A   Clear
8:00 AM 89 °F - 51 °F 18% 29.81 in 5 mi Calm Calm - -   Haze
8:00 AM 89.6 °F - 51.8 °F 27% 29.83 in 5.0 mi Calm Calm - N/A   Unknown
9:00 AM 95.0 °F 92.7 °F 53.6 °F 25% 29.83 in 5.0 mi Calm Calm - N/A   Unknown
10:00 AM 96.8 °F 95.1 °F 55.4 °F 25% 29.83 in 5.0 mi North 2.3 mph - N/A   Unknown
11:00 AM 100.4 °F 98.8 °F 55.4 °F 22% 29.80 in 5.0 mi North 2.3 mph - N/A   Unknown
12:00 PM 104.0 °F 102.9 °F 55.4 °F 20% 29.77 in 5.0 mi North 4.6 mph - N/A   Unknown
1:00 PM 105.8 °F 104.3 °F 53.6 °F 18% 29.74 in - North 6.9 mph - N/A   Clear
2:00 PM 107 °F - 54 °F 10% 29.71 in 6 mi North 6.9 mph - -  
2:00 PM 105.8 °F 114.2 °F 69.8 °F 31% 29.74 in - North 6.9 mph - N/A   Clear
3:00 PM 107.6 °F 106.8 °F 55.4 °F 18% 29.71 in - North 6.9 mph - N/A   Clear
4:00 PM 107.6 °F 106.1 °F 53.6 °F 17% 29.68 in - North 6.9 mph - N/A   Clear
5:00 PM 105.8 °F 104.9 °F 55.4 °F 19% 29.68 in - NNW 4.6 mph - N/A   Clear
6:00 PM 104.0 °F 102.3 °F 53.6 °F 19% 29.68 in - North 2.3 mph - N/A   Clear
7:00 PM 100.4 °F - 51.8 °F 20% 29.68 in - North 2.3 mph - N/A   Clear
8:00 PM 96 °F - 52 °F 14% 29.70 in 6 mi NNW 2.3 mph - -  
8:00 PM 96.8 °F - 51.8 °F 22% 29.71 in - NNW 2.3 mph - N/A   Clear
9:00 PM 93.2 °F - 48.2 °F 21% 29.74 in - Calm Calm - N/A   Clear
10:00 PM 93.2 °F - 48.2 °F 21% 29.74 in - NNE 1.2 mph - N/A   Clear
11:00 PM 91.4 °F - 46.4 °F 21% 29.74 in - NNE 2.3 mph - N/A   Clear